This is the latest recevied weather packets stored in our database for station/object WB5LFS-1. If no packets are shown the sender has not sent any weather packets the latest 10 day(s).
| Time | Temp. | Humidity | Pressure | Rain* | Wind** | Luminosity | Snow |
|---|---|---|---|---|---|---|---|
| 1777922810 | 25° C | 33% | 1012.6 hPa | 0 mm | - | - | - |
| 1777921910 | 24.44° C | 30% | 1012.7 hPa | 0 mm | - | - | - |
| 1777921010 | 24.44° C | 30% | 1013.1 hPa | 0 mm | - | - | - |
| 1777920110 | 24.44° C | 33% | 1013.3 hPa | 0 mm | - | - | - |
| 1777919210 | 23.89° C | 35% | 1013.4 hPa | 0 mm | - | - | - |
| 1777918310 | 23.33° C | 35% | 1013.7 hPa | 0 mm | - | - | - |
| 1777917410 | 22.78° C | 34% | 1013.8 hPa | 0 mm | - | - | - |
| 1777916510 | 22.78° C | 34% | 1014.1 hPa | 0 mm | - | - | - |
| 1777915610 | 22.78° C | 33% | 1014.1 hPa | 0 mm | - | - | - |
| 1777914710 | 22.78° C | 34% | 1014.3 hPa | 0 mm | - | - | - |
| 1777913810 | 22.78° C | 34% | 1014.5 hPa | 0 mm | - | - | - |
| 1777912910 | 22.78° C | 34% | 1014.7 hPa | 0 mm | - | - | - |
| 1777912010 | 22.78° C | 37% | 1014.8 hPa | 0 mm | - | - | - |
| 1777911110 | 22.22° C | 37% | 1015.1 hPa | 0 mm | - | - | - |
| 1777910210 | 21.67° C | 35% | 1015.2 hPa | 0 mm | - | - | - |
| 1777909310 | 21.11° C | 43% | 1015.3 hPa | 0 mm | - | - | - |
| 1777908410 | 20.56° C | 39% | 1015.4 hPa | 0 mm | - | - | - |
| 1777907510 | 20° C | 42% | 1015.6 hPa | 0 mm | - | - | - |
| 1777906610 | 20° C | 44% | 1015.7 hPa | 0 mm | - | - | - |
| 1777905710 | 18.89° C | 48% | 1015.6 hPa | 0 mm | - | - | - |
| 1777904810 | 18.33° C | 52% | 1015.8 hPa | 0 mm | - | - | - |
| 1777903910 | 18.33° C | 49% | 1015.7 hPa | 0 mm | - | - | - |
| 1777903010 | 17.22° C | 56% | 1015.7 hPa | 0 mm | - | - | - |
| 1777902110 | 16.67° C | 55% | 1015.6 hPa | 0 mm | - | - | - |
| 1777901210 | 16.11° C | 57% | 1015.8 hPa | 0 mm | - | - | - |
* Rain latest hour (hover to see other rain measurements)
** Current wind speed in m/s (hover to see current wind gust speed)